Regional Weather Roundup
Issued by NWS

Home | Current Version | Previous Version | Graphics & Text | Print | Product List | Glossary On
Versions: 1 2 3 4 5 6 7 8 9 10 11 12 13 14 15 16 17 18 19 20 21 22 23 24 25 26 27 28 29 30 31 32 33 34 35 36 37 38 39 40 41 42 43 44 45 46 47 48 49 50
000
ASUS43 KFSD 201610
RWRSD

WEATHER ROUNDUP FOR SOUTH DAKOTA
NATIONAL WEATHER SERVICE SIOUX FALLS SD
1100 AM CDT FRI OCT 20 2017

NOTE: "FAIR" INDICATES FEW OR NO CLOUDS BELOW 12,000 FEET WITH NO
SIGNIFICANT WEATHER AND/OR OBSTRUCTIONS TO VISIBILITY.


SDZ001>005-009-010-012>017-201700-
NORTHWEST AND NORTH CENTRAL SOUTH DAKOTA

CITY           SKY/WX    TMP DP  RH WIND       PRES   REMARKS
BUFFALO          N/A     64  32  30 W5        29.38F
MOBRIDGE       SUNNY     67  49  52 S18       29.45F
$$

SDZ012>016-024>037-041>051-057-063-072>074-201700-
SOUTHWEST AND SOUTH CENTRAL SOUTH DAKOTA

CITY           SKY/WX    TMP DP  RH WIND       PRES   REMARKS
RAPID CTY ARPT CLOUDY    68  34  28 S10       29.52F
PIERRE         SUNNY     63  49  60 S18       29.52F
CUSTER         SUNNY     64  31  28 SW10      29.65F
ELLSWORTH AFB  CLOUDY    66  32  28 S14       29.50F
PHILIP         CLOUDY    65  47  52 SW13      29.51F
PINE RIDGE     SUNNY     63  46  54 S16G22    29.60F
SPEARFISH      FAIR      73  34  23 SW23G33   29.51S
WINNER         FAIR      65  50  58 S23G32    29.60F
$$

SDZ004>011-016>023-039-040-201700-
NORTHEAST SOUTH DAKOTA

CITY           SKY/WX    TMP DP  RH WIND       PRES   REMARKS
ABERDEEN       SUNNY     62  49  62 S18G31    29.58F
WATERTOWN      SUNNY     59  50  72 S21       29.68F
BROOKINGS      SUNNY     62  51  67 S20       29.73F
SISSETON         N/A     68  50  52 S23G29    29.61F
$$

SDZ017-020-022-023-036>040-048>070-201700-
SOUTHEAST SOUTH DAKOTA

CITY           SKY/WX    TMP DP  RH WIND       PRES   REMARKS
SIOUX FALLS    MOSUNNY   65  53  65 S23G33    29.76F
HURON          SUNNY     64  50  60 S17G31    29.64F
CHAMBERLAIN    CLOUDY    66  51  57 S21G31    29.61F
MITCHELL       SUNNY     66  51  58 S18G32    29.67F
YANKTON        SUNNY     66  52  60 S21G31    29.75F
$$

ABBREVIATIONS USED IN REMARKS
   TC - TEMPERATURE IN CELSIUS
  WCI - WIND CHILL INDEX
   HX - HEAT INDEX
  VSB - VISIBILITY





USA.gov is the U.S. government's official web portal to all federal, state and local government web resources and services.